Regional Weather Roundup
Issued by NWS Upton, NY

Current Version | Previous Version | Text Only | Print | Product List | Glossary On
Versions: 1 2 3 4 5 6 7 8 9 10 11 12 13 14 15 16 17 18 19 20 21 22 23 24 25 26 27 28 29 30 31 32 33 34 35 36 37 38 39 40 41 42 43 44 45 46 47 48 49 50
045
ASUS41 KOKX 190409
RWROKX

REGIONAL WEATHER ROUNDUP
NATIONAL WEATHER SERVICE NEW YORK NY
1200 AM EDT TUE SEP 19 2017

NOTE: "FAIR" INDICATES FEW OR NO CLOUDS BELOW 12,000 FEET WITH NO
SIGNIFICANT WEATHER AND/OR OBSTRUCTIONS TO VISIBILITY.

NYZ071-072-176-178-NJZ106-104-190500-
NEW YORK CITY METRO AREA

CITY           SKY/WX    TMP DP  RH WIND       PRES   REMARKS
Central Park   CLOUDY    72  66  81 E8        30.10F
Bronx Bot Gard   N/A     70  64  83 CALM      30.08F
LaGuardia APRT CLOUDY    71  68  90 NE14      30.07S
Kennedy INTL   CLOUDY    72  67  84 NE12      30.07F
Breezy Point     N/A     70 N/A N/A NE9         N/A
Newark/Liberty CLOUDY    71  66  84 N13       30.07S
Teterboro      CLOUDY    72  66  81 N7        30.07F
$$

NYZ177-179-078>081-190500-
LONG ISLAND NEW YORK

CITY           SKY/WX    TMP DP  RH WIND       PRES   REMARKS
Jones Beach      N/A     70 N/A N/A NE16        N/A
Matinecock PT    N/A     70 N/A N/A NE14        N/A
Farmingdale    CLOUDY    71  67  87 NE13      30.06F
MacArthur/ISP  CLOUDY    70  68  93 NE14      30.06F
Shirley        CLOUDY    72  69  90 VRB5      30.07F
Mt Sinai Harb    N/A    N/A N/A N/A E12G17      N/A
Westhampton    CLOUDY    70  66  87 NE14      30.09F
East Hampton   CLOUDY    67  66  94 NE10G16   30.08F
Montauk          N/A     69  67  93 NE7       30.10F
$$

NYZ052-065-067-190500-
HUDSON VALLEY

CITY           SKY/WX    TMP DP  RH WIND       PRES   REMARKS
White Plains   CLOUDY    70  65  84 NE6       30.09F
Larchmont Harb   N/A     70 N/A N/A N10         N/A
Croton On Huds   N/A     66 N/A N/A CALM        N/A
Newburgh       PTCLDY    66  66 100 VRB5      30.14S
Montgomery     CLEAR     61  60  97 CALM      30.12S FOG
Poughkeepsie   CLOUDY    62  60  93 CALM      30.11F
Albany         PTCLDY    64  60  87 CALM      30.14S
$$

NJZ001-105-106-008-010-013-015-019>022-104-190500-
NEW JERSEY

CITY           SKY/WX    TMP DP  RH WIND       PRES   REMARKS
Newark/Liberty CLOUDY    71  66  84 N13       30.07S
Teterboro      CLOUDY    72  66  81 N7        30.07F
Caldwell       CLOUDY    69  68  96 NE3       30.09F
Somerville     NOT AVBL
Linden         CLOUDY    72  66  81 NE3       30.07S
Perth Amboy      N/A     72 N/A N/A NE9         N/A
Sussex         PTCLDY    63  63 100 CALM      30.11F
Andover          N/A     64  63  96 CALM      30.11F
Trenton        CLOUDY    70  66  87 NE8       30.05F
Millville      CLOUDY    73  69  87 NE10G18   30.01F
Atlantic City  CLOUDY    71  70  96 NE14      30.01S
Wrightstown    CLOUDY    70  67  90 N7        30.02F
Toms River     CLOUDY    70  68  93 NE12      30.04F
Belmar         CLOUDY    70  68  93 NE12      30.06S
$$

PAZ047>061-062-071-190500-
EASTERN PENNSYLVANIA

CITY           SKY/WX    TMP DP  RH WIND       PRES   REMARKS
Philadelphia   CLOUDY    72  65  78 NE13      30.05F
Allentown      PTCLDY    65  62  90 N3        30.09F
Scranton       CLOUDY    67  64  90 CALM      30.12F
$$

CTZ002-004>006-009-010-012-RIZ004-006-007-MAZ004-011-015-190500-
SOUTHERN NEW ENGLAND
 IN CT

CITY           SKY/WX    TMP DP  RH WIND       PRES   REMARKS
Bradley INTL   CLOUDY    66  65  96 N6        30.13F
Hartford       CLOUDY    69  65  86 N7        30.12F
Danbury        CLOUDY    67  64  90 NE5       30.13F
Wtrbury/Oxford CLOUDY    66  64  93 NE8       30.13F
Norwalk Harbor   N/A     68 N/A N/A N10         N/A
Bridgeport     CLOUDY    72  65  78 NE10      30.08F
Meriden        CLOUDY    69  64  84 N6        30.11F
New Haven      CLOUDY    71  65  81 NE8       30.09F
Chester        CLOUDY    70  66  88 VRB6      30.11F
Groton         CLOUDY    70  66  87 NE13      30.09F
Wilimantic     CLOUDY    69  66  90 NE8       30.13F

 IN RI

CITY           SKY/WX    TMP DP  RH WIND       PRES   REMARKS
Providence     CLOUDY    66  65  96 NE10      30.14F
Block Island   CLOUDY    67  66  97 NE10      30.10F
Westerly       CLOUDY    69  66  90 NE7       30.11F
 IN MA

CITY           SKY/WX    TMP DP  RH WIND       PRES   REMARKS
Boston         FOG       64  64 100 NE9       30.17F VSB 1/4
Worcester      FOG       62  61  96 NE8       30.18S VSB 1/4
Westfield      CLOUDY    66  65  96 N7        30.14F
Provincetown   LGT RAIN  64  64 100 E10       30.15F VSB 3/4
Nantucket      FOG       64  64 100 NE15      30.10S VSB 1/2
$$

ANZ330-335-338-340-345-350-353-355-190500-
COASTAL MARINE OBSERVATIONS


STATION/POSITION TIME  SKY/WX   TEMP    WIND        PRES    VSBY  WAVE
                                AIR SEA DIR/SP/G                  HT/PER
                 (UTC)          (F)     (DEG/KT/KT) (MB)    (MI)  (FT/S)
NY HARB ENTRANCE 0250            71 71   50/ 16/ 19 1016.9          6/13
20 S FIRE ISLAND 0250            68 69   50/ 21/ 25 1016.9          9/14
GREAT SOUTH BAY  0315            71 73   50/ 12/ 16   N/A
23 SSW MONTAUK P 0250            68 68              1018.3          9/14
15 E BARNEGAT LI 0330               71                N/A           8/14
HUDSON CANYON    0250            70 70   50/ 17/ 21 1014.8         11/14
KINGS POINT      0324            71 71   70/  6/ 13 1019.3
EXECUTION ROCKS  0345            71      50/ 12/ 16   N/A
WESTERN LI SOUND NOT AVBL
CENTRAL LI SOUND NOT AVBL
EASTERN LI SOUND NOT AVBL
ROBBINS REEF     0348            72      40/ 15/ 19 1018.7
$$


>>>>>>>>>>>>>>>>>>>>>>>>>>>> KEY <<<<<<<<<<<<<<<<<<<<<<<<<<<
>                                                          <
>     SKY/WX - Sky Condition/Present Weather               <
>     TMP    - Temperature in Fahrenheit                   <
>     DP     - Dew Point in Fahrenheit                     <
>     RH     - Relative Humidity in Percent                <
>     WIND   - Direction (from) and Speed in MPH           <
>     PRES   - Mean Sea Level Pressure (inches of Hg)      <
>     WCI    - Wind Chill Index                            <
>     VSB    - VISIBILITY IN MILES                         <
>     HX     - HEAT INDEX                                  <
>     TC     - TEMPERATURE IN CELSIUS                      <
>     VRB    - VARIABLE WIND DIRECTION                     <
>                                                          <
>>>>>>>>>>>>>>>>>>>>>>>>>>>> KEY <<<<<<<<<<<<<<<<<<<<<<<<<<<




USA.gov is the U.S. government's official web portal to all federal, state and local government web resources and services.